Location: Lombray
(49.5154°N, 3.1089°E)
Time: 07:30:23
(UTC+00:00)

CZ-2C R/B - Pass Details

Date: 15 May 2026
Orbit: 630 x 690 km, 98.1° (Epoch: 5 June)

Event Time Altitude Azimuth Distance (km) Brightness Sun altitude
Rises 22:26:53 0° 19° (NNE) 2,962 7.9 -19.3°
Reaches altitude 10° 22:29:11 10° 26° (NNE) 2,055 6.8 -19.5°
Maximum altitude 22:33:28 44° 99° (E) 904 4.1 -19.7°
Enters shadow 22:34:16 40° 128° (SE) 968 4.1 -19.7°
